Hollywood, FL

5:00 AM EDT on October 21, 2019 (GMT -0400)
North Perry

Weather History for KHWO - August, 2019

Change the Weather History Date:

Sunday, August 18, 2019

  Actual Average (KFLL) Record (KFLL)
Temperature  
Mean Temperature 86 °F -  
Max Temperature 93 °F 89 °F 98 °F (1921)
Min Temperature 78 °F 76 °F 68 °F (1921)
Cooling Degree Days 20    
Growing Degree Days 36 (Base 50)    
Moisture  
Dew Point 74 °F    
Average Humidity 69    
Maximum Humidity 88    
Minimum Humidity 50    
Precipitation  
Precipitation 0.00 in - - ()
Sea Level Pressure  
Sea Level Pressure 30.09 in    
Wind  
Wind Speed 5 mph (East)    
Max Wind Speed 14 mph    
Max Gust Speed 20 mph    
Visibility 10 miles    
Events      
Averages and records for this station are not official NWS values.
T = Trace of Precipitation, MM = Missing Value Source: NWS Daily Summary

Daily Weather History Graph

Daily Weather History Graph

Search for Another Location

Airport or City:

Astronomy

Aug. 18, 2019 Rise Set
Actual Time 6:54 AM EDT 7:54 PM EDT
Civil Twilight 6:30 AM EDT 8:18 PM EDT
Nautical Twilight 6:02 AM EDT 8:46 PM EDT
Astronomical Twilight 5:33 AM EDT 9:15 PM EDT
Moon 10:03 PM EDT (8/18) 9:26 AM EDT (8/18)
Length of Visible Light 13h 47m
Length of Day
12h 59m
Waning Gibbous, 91% of the Moon is Illuminated
Aug 18
Waning Gibbous
Aug 23
Last Quarter
Aug 30
New
Sep 5
First Quarter
Sep 14
Full

Hourly Weather History & Observations

Time (EDT) Temp. Heat Index Dew Point Humidity Pressure Visibility Wind Dir Wind Speed Gust Speed Precip Events Conditions
12:53 AM 80.1 °F 85.1 °F 75.0 °F 85% 30.12 in 10.0 mi NW 3.5 mph - N/A   Clear
1:53 AM 80.1 °F 85.1 °F 75.0 °F 85% 30.10 in 10.0 mi Calm Calm - N/A   Clear
2:53 AM 80.1 °F 85.1 °F 75.0 °F 85% 30.09 in 10.0 mi Calm Calm - N/A   Scattered Clouds
3:53 AM 79.0 °F - 75.0 °F 88% 30.08 in 10.0 mi Calm Calm - N/A   Clear
4:53 AM 79.0 °F - 73.9 °F 84% 30.07 in 10.0 mi Calm Calm - N/A   Clear
6:53 AM 78.1 °F - 73.9 °F 87% 30.08 in 10.0 mi Calm Calm - N/A   Clear
7:53 AM 81.0 °F 87.3 °F 75.9 °F 85% 30.09 in 10.0 mi Calm Calm - N/A   Clear
8:53 AM 86.0 °F 96.9 °F 77.0 °F 74% 30.09 in 10.0 mi Calm Calm - N/A   Partly Cloudy
9:45 AM 89.1 °F 98.0 °F 73.9 °F 61% 30.09 in 10.0 mi ESE 8.1 mph - N/A   Mostly Cloudy
9:53 AM 89.1 °F 98.0 °F 73.9 °F 61% 30.10 in 10.0 mi ESE 8.1 mph - N/A   Scattered Clouds
10:53 AM 91.0 °F 100.4 °F 73.9 °F 57% 30.11 in 10.0 mi ESE 6.9 mph - N/A   Partly Cloudy
11:53 AM 91.0 °F 100.4 °F 73.9 °F 57% 30.11 in 10.0 mi SSE 5.8 mph - N/A   Partly Cloudy
12:53 PM 91.9 °F 98.4 °F 71.1 °F 50% 30.11 in 10.0 mi East 6.9 mph - N/A   Clear
1:53 PM 93.0 °F 101.9 °F 73.0 °F 52% 30.10 in 10.0 mi SE 13.8 mph 19.6 mph N/A   Partly Cloudy
2:53 PM 91.9 °F 103.2 °F 75.0 °F 58% 30.09 in 10.0 mi East 12.7 mph 19.6 mph N/A   Scattered Clouds
3:53 PM 91.9 °F 103.2 °F 75.0 °F 58% 30.08 in 10.0 mi East 11.5 mph - N/A   Scattered Clouds
4:53 PM 91.9 °F 101.3 °F 73.9 °F 55% 30.06 in 10.0 mi ENE 11.5 mph - N/A   Partly Cloudy
5:53 PM 90.0 °F 100.2 °F 75.0 °F 61% 30.06 in 10.0 mi East 9.2 mph - N/A   Partly Cloudy
6:53 PM 88.0 °F 97.5 °F 75.0 °F 65% 30.06 in 10.0 mi East 11.5 mph - N/A   Clear
7:53 PM 87.1 °F 95.4 °F 73.9 °F 65% 30.07 in 10.0 mi East 10.4 mph - N/A   Clear
8:53 PM 86.0 °F 93.8 °F 73.9 °F 67% 30.07 in 10.0 mi East 8.1 mph - N/A   Clear
9:53 PM 84.9 °F 93.3 °F 75.0 °F 72% 30.08 in 10.0 mi East 5.8 mph - N/A   Clear
10:53 PM 84.9 °F 93.3 °F 75.0 °F 72% 30.09 in 10.0 mi East 6.9 mph - N/A   Clear
11:53 PM 84.9 °F 91.4 °F 73.0 °F 67% 30.09 in 10.0 mi East 10.4 mph - N/A   Clear